Willimantic, CT

10:19 PM EST on December 05, 2019 (GMT -0500)
Windham

Weather History for KIJD - August, 2019

Change the Weather History Date:

Sunday, August 11, 2019

  Actual Average Record
Temperature  
Mean Temperature 66 °F -  
Max Temperature 79 °F 83 °F 92 °F (1973)
Min Temperature 52 °F 59 °F 42 °F (1974)
Growing Degree Days 16 (Base 50)    
Moisture  
Dew Point 53 °F    
Average Humidity 67    
Maximum Humidity 93    
Minimum Humidity 40    
Precipitation  
Precipitation 0.00 in - - ()
Sea Level Pressure  
Sea Level Pressure 29.98 in    
Wind  
Wind Speed 3 mph (WNW)    
Max Wind Speed 12 mph    
Max Gust Speed 20 mph    
Visibility 10 miles    
Events      
Averages and records for this station are not official NWS values.
T = Trace of Precipitation, MM = Missing Value Source: NWS Daily Summary

Daily Weather History Graph

Daily Weather History Graph

Search for Another Location

Airport or City:

Astronomy

Aug. 11, 2019 Rise Set
Actual Time 5:52 AM EDT 7:54 PM EDT
Civil Twilight 5:22 AM EDT 8:24 PM EDT
Nautical Twilight 4:45 AM EDT 9:01 PM EDT
Astronomical Twilight 4:04 AM EDT 9:42 PM EDT
Moon 5:32 PM EDT (8/11) 2:09 AM EDT (8/11)
Length of Visible Light 15h 02m
Length of Day
14h 01m
Waxing Gibbous, 87% of the Moon is Illuminated
Aug 11
Waxing Gibbous
Aug 15
Full
Aug 23
Last Quarter
Aug 30
New
Sep 5
First Quarter

Hourly Weather History & Observations

Time (EDT) Temp. Dew Point Humidity Pressure Visibility Wind Dir Wind Speed Gust Speed Precip Events Conditions
12:52 AM 57.9 °F 52.0 °F 81% 29.95 in 10.0 mi Calm Calm - N/A   Clear
1:52 AM 57.0 °F 52.0 °F 83% 29.94 in 10.0 mi Calm Calm - N/A   Clear
2:52 AM 54.0 °F 52.0 °F 93% 29.94 in 10.0 mi Calm Calm - N/A   Clear
3:52 AM 53.1 °F 51.1 °F 93% 29.94 in 10.0 mi Calm Calm - N/A   Clear
4:52 AM 53.1 °F 51.1 °F 93% 29.95 in 10.0 mi Calm Calm - N/A   Clear
5:52 AM 52.0 °F 50.0 °F 93% 29.97 in 10.0 mi Calm Calm - N/A   Clear
6:52 AM 54.0 °F 51.1 °F 90% 30.00 in 10.0 mi Calm Calm - N/A   Clear
7:52 AM 60.1 °F 54.0 °F 80% 30.03 in 10.0 mi Calm Calm - N/A   Clear
8:52 AM 66.0 °F 55.0 °F 68% 30.01 in 10.0 mi NW 4.6 mph - N/A   Clear
9:52 AM 70.0 °F 55.0 °F 59% 30.00 in 10.0 mi Variable 4.6 mph - N/A   Clear
10:52 AM 73.0 °F 53.1 °F 49% 30.01 in 10.0 mi NW 10.4 mph 17.3 mph N/A   Clear
11:52 AM 73.9 °F 53.1 °F 48% 30.00 in 10.0 mi NNW 11.5 mph 18.4 mph N/A   Clear
12:52 PM 73.9 °F 52.0 °F 46% 29.99 in 10.0 mi West 8.1 mph 19.6 mph N/A   Scattered Clouds
1:52 PM 75.0 °F 53.1 °F 46% 29.99 in 10.0 mi West 11.5 mph 19.6 mph N/A   Mostly Cloudy
2:52 PM 77.0 °F 51.1 °F 40% 29.99 in 10.0 mi WNW 8.1 mph 19.6 mph N/A   Scattered Clouds
3:52 PM 78.1 °F 52.0 °F 40% 29.97 in 10.0 mi WNW 10.4 mph - N/A   Clear
4:52 PM 79.0 °F 53.1 °F 40% 29.96 in 10.0 mi NW 6.9 mph - N/A   Clear
5:52 PM 77.0 °F 53.1 °F 43% 29.96 in 10.0 mi Variable 5.8 mph - N/A   Clear
6:52 PM 77.0 °F 54.0 °F 45% 29.97 in 10.0 mi West 5.8 mph - N/A   Clear
7:52 PM 73.0 °F 54.0 °F 51% 29.96 in 10.0 mi Calm Calm - N/A   Clear
8:52 PM 66.0 °F 57.0 °F 73% 29.98 in 10.0 mi Calm Calm - N/A   Clear
9:52 PM 64.0 °F 57.0 °F 78% 29.99 in 10.0 mi Calm Calm - N/A   Clear
10:52 PM 61.0 °F 57.0 °F 87% 30.00 in 10.0 mi Calm Calm - N/A   Clear
11:52 PM 60.1 °F 57.0 °F 90% 30.00 in 10.0 mi Calm Calm - N/A   Clear